Date String (YYYY-MM-DD hh:mm:ss) UTC,Instrument flags,Ambient pressure (hPa),Sample flow (lpm),Bypass flow (lpm),Sample temperature (°C),Ambient temperature (°C),ASC tube jacket temperature (°C),LED temperature (°C),Box temperature (°C),Sample RH (%),Span deviation,Mass concentration (μg/m³),Mass concentration (μg/m³),Mass concentration (μg/m³)
DateTimeUTC,F1_M11,P_M11,Q1_M11,Q2_M11,T1_M11,T2_M11,T3_M11,T4_M11,T5_M11,U1_M11,ZSPAN_M11,X0_M11,X2_M11,X1_M11
2022-01-25 17:00:00,,0829.8,5.00,0.00,22.4,21.7,00.0,31.4,24.1,13.8,0000.0,0000.93,0000.68,0000.62
2022-01-25 17:01:00,,0829.8,5.01,0.00,22.4,21.7,00.0,31.4,24.1,13.9,0000.0,0000.91,0000.68,0000.63
2022-01-25 17:02:00,,0829.8,5.00,0.00,22.4,21.7,00.0,31.4,24.1,13.9,0000.0,0000.89,0000.68,0000.64
2022-01-25 17:03:00,,0829.8,5.00,0.00,22.3,21.9,00.0,31.4,24.1,13.9,0000.0,0000.91,0000.69,0000.64
2022-01-25 17:04:00,,0829.9,5.01,0.00,22.5,22.6,00.0,31.4,24.3,13.8,0000.0,0000.93,0000.70,0000.64
2022-01-25 17:05:00,,0829.9,5.00,0.00,22.6,23.2,00.0,31.4,24.5,13.7,0000.0,0000.93,0000.71,0000.65
2022-01-25 17:06:00,,0829.9,4.99,0.00,22.6,23.0,00.0,31.5,24.6,13.7,0000.0,0001.47,0000.72,0000.66
2022-01-25 17:07:00,,0830.0,5.01,0.00,22.7,22.7,00.0,31.5,24.6,13.7,0000.0,0001.84,0000.73,0000.67
2022-01-25 17:08:00,,0829.9,5.00,0.00,22.6,22.5,00.0,31.5,24.5,13.7,0000.0,0001.82,0000.72,0000.67
2022-01-25 17:09:00,,0830.0,5.00,0.00,22.6,22.4,00.0,31.5,24.5,13.7,0000.0,0001.79,0000.72,0000.68
2022-01-25 17:10:00,,0830.0,5.00,0.00,22.6,22.2,00.0,31.5,24.4,13.8,0000.0,0001.76,0000.71,0000.68
2022-01-25 17:11:00,,0830.0,5.00,0.00,22.6,22.1,00.0,31.5,24.4,13.8,0000.0,0002.07,0000.72,0000.69
2022-01-25 17:12:00,,0830.0,5.00,0.00,22.6,22.1,00.0,31.5,24.3,13.7,0000.0,0002.36,0000.74,0000.70
2022-01-25 17:13:00,,0830.0,5.00,0.00,22.6,22.0,00.0,31.5,24.3,13.8,0000.0,0002.37,0000.75,0000.71
2022-01-25 17:14:00,,0830.0,5.00,0.00,22.6,21.9,00.0,31.5,24.3,13.8,0000.0,0002.39,0000.76,0000.72
2022-01-25 17:15:00,,0830.1,4.99,0.00,22.5,21.9,00.0,31.5,24.3,13.9,0000.0,0002.42,0000.77,0000.73
2022-01-25 17:16:00,,0830.0,5.02,0.00,22.5,21.9,00.0,31.5,24.3,13.9,0000.0,0002.46,0000.79,0000.73
2022-01-25 17:17:00,,0830.0,5.00,0.00,22.5,21.8,00.0,31.5,24.2,13.9,0000.0,0002.03,0000.80,0000.74
2022-01-25 17:18:00,,0830.1,5.00,0.00,22.5,21.8,00.0,31.5,24.2,14.0,0000.0,0001.59,0000.80,0000.74
2022-01-25 17:19:00,,0830.1,4.99,0.00,22.5,21.8,00.0,31.4,24.2,13.9,0000.0,0001.59,0000.80,0000.74
2022-01-25 17:20:00,,0830.1,5.00,0.00,22.5,21.8,00.0,31.4,24.2,14.0,0000.0,0001.59,0000.80,0000.74
2022-01-25 17:21:00,,0830.1,5.00,0.00,22.5,21.7,00.0,31.4,24.2,14.1,0000.0,0001.59,0000.80,0000.74
2022-01-25 17:22:00,,0830.2,5.00,0.00,22.5,21.7,00.0,31.4,24.2,14.1,0000.0,0001.36,0000.80,0000.74
2022-01-25 17:23:00,,0830.1,4.99,0.00,22.4,21.7,00.0,31.4,24.2,14.1,0000.0,0001.07,0000.81,0000.74
2022-01-25 17:24:00,,0830.2,5.00,0.00,22.4,21.7,00.0,31.4,24.1,14.1,0000.0,0001.12,0000.83,0000.74
2022-01-25 17:25:00,,0830.2,5.00,0.00,22.4,21.7,00.0,31.4,24.1,14.1,0000.0,0001.12,0000.84,0000.74
2022-01-25 17:26:00,,0830.2,5.00,0.00,22.4,21.7,00.0,31.4,24.1,14.1,0000.0,0001.09,0000.84,0000.75
2022-01-25 17:27:00,,0830.2,5.01,0.00,22.4,21.7,00.0,31.4,24.1,14.0,0000.0,0001.08,0000.83,0000.75
2022-01-25 17:28:00,,0830.3,5.00,0.00,22.4,21.7,00.0,31.4,24.1,14.0,0000.0,0001.42,0000.84,0000.76
2022-01-25 17:29:00,,0830.3,5.01,0.00,22.4,21.8,00.0,31.4,24.1,14.0,0000.0,0001.52,0000.85,0000.76
2022-01-25 17:30:00,,0830.4,5.00,0.00,22.5,22.5,00.0,31.4,24.3,13.9,0000.0,0001.58,0000.87,0000.77
2022-01-25 17:31:00,,0830.4,5.00,0.00,22.6,23.3,00.0,31.5,24.6,13.9,0000.0,0001.62,0000.89,0000.78
2022-01-25 17:32:00,,0830.5,5.00,0.00,22.8,23.5,00.0,31.5,24.8,13.8,0000.0,0001.63,0000.90,0000.79
2022-01-25 17:33:00,,0830.4,5.01,0.00,22.8,23.3,00.0,31.5,24.8,13.8,0000.0,0001.62,0000.90,0000.80
2022-01-25 17:34:00,,0830.4,4.99,0.00,22.8,23.1,00.0,31.6,24.7,13.8,0000.0,0001.60,0000.90,0000.80
2022-01-25 17:35:00,,0830.4,5.00,0.00,22.8,22.9,00.0,31.6,24.7,13.8,0000.0,0002.19,0000.90,0000.81
2022-01-25 17:36:00,,0830.4,5.00,0.00,22.8,22.7,00.0,31.6,24.7,13.8,0000.0,0002.36,0000.90,0000.82
2022-01-25 17:37:00,,0830.4,4.98,0.00,22.8,22.6,00.0,31.6,24.6,13.5,0000.0,0002.36,0000.90,0000.81
2022-01-25 17:38:00,,0830.4,5.01,0.00,22.8,22.4,00.0,31.6,24.5,13.3,0000.0,0002.35,0000.90,0000.81
2022-01-25 17:39:00,,0830.4,5.00,0.00,22.7,22.3,00.0,31.6,24.5,13.4,0000.0,0002.02,0000.88,0000.81
2022-01-25 17:40:00,,0830.4,5.00,0.00,22.7,22.2,00.0,31.6,24.4,13.3,0000.0,0001.90,0000.88,0000.81
2022-01-25 17:41:00,,0830.4,5.00,0.00,22.7,22.2,00.0,31.6,24.4,13.3,0000.0,0001.88,0000.87,0000.81
2022-01-25 17:42:00,,0830.4,5.00,0.00,22.7,22.1,00.0,31.6,24.4,13.1,0000.0,0001.86,0000.88,0000.81
2022-01-25 17:43:00,,0830.4,5.00,0.00,22.6,22.0,00.0,31.6,24.3,13.1,0000.0,0002.00,0000.89,0000.81
2022-01-25 17:44:00,,0830.4,4.98,0.00,22.6,22.0,00.0,31.6,24.3,13.1,0000.0,0002.17,0000.91,0000.82
2022-01-25 17:45:00,,0830.4,5.02,0.00,22.6,21.9,00.0,31.6,24.2,13.1,0000.0,0002.22,0000.93,0000.83
2022-01-25 17:46:00,,0830.4,5.00,0.00,22.5,22.0,00.0,31.6,24.2,13.1,0000.0,0002.03,0000.94,0000.84
2022-01-25 17:47:00,,0830.4,4.99,0.00,22.6,22.7,00.0,31.6,24.4,13.1,0000.0,0001.49,0000.94,0000.83
2022-01-25 17:48:00,,0830.5,5.00,0.00,22.8,23.5,00.0,31.6,24.7,12.9,0000.0,0001.53,0000.94,0000.83
2022-01-25 17:49:00,,0830.5,5.01,0.00,22.9,23.8,00.0,31.7,24.9,12.8,0000.0,0001.57,0000.96,0000.84
2022-01-25 17:50:00,,0830.5,5.01,0.00,22.9,23.5,00.0,31.7,24.9,12.8,0000.0,0001.56,0000.96,0000.84
2022-01-25 17:51:00,,0830.4,4.99,0.00,22.9,23.2,00.0,31.7,24.8,12.7,0000.0,0001.57,0000.96,0000.84
2022-01-25 17:52:00,,0830.4,5.00,0.00,22.9,22.9,00.0,31.7,24.8,12.7,0000.0,0001.57,0000.96,0000.84
2022-01-25 17:53:00,,0830.5,5.00,0.00,22.9,22.7,00.0,31.7,24.7,12.7,0000.0,0001.56,0000.95,0000.84
2022-01-25 17:54:00,,0830.4,5.00,0.00,22.9,22.5,00.0,31.7,24.7,12.8,0000.0,0001.45,0000.93,0000.83
2022-01-25 17:55:00,,0830.4,5.02,0.00,22.9,22.4,00.0,31.7,24.6,12.8,0000.0,0001.27,0000.92,0000.82
2022-01-25 17:56:00,,0830.4,5.00,0.00,22.8,22.3,00.0,31.7,24.6,12.8,0000.0,0001.32,0000.90,0000.81
2022-01-25 17:57:00,,0830.5,4.99,0.00,22.8,22.3,00.0,31.7,24.5,12.9,0000.0,0001.27,0000.88,0000.81
2022-01-25 17:58:00,,0830.4,5.00,0.00,22.8,22.2,00.0,31.7,24.5,12.9,0000.0,0001.27,0000.89,0000.81
2022-01-25 17:59:00,,0830.4,5.00,0.00,22.7,22.1,00.0,31.7,24.4,13.0,0000.0,0001.23,0000.89,0000.82
